Concordia, KS

9:42 PM CST on December 10, 2019 (GMT -0600)
Blosser Municipal

Weather History for KCNK - August, 2019

Change the Weather History Date:

Thursday, August 29, 2019

  Actual Average Record
Temperature  
Mean Temperature 80 °F 75 °F  
Max Temperature 90 °F 87 °F 104 °F (1947)
Min Temperature 70 °F 63 °F 45 °F (1893)
Degree Days  
Heating Degree Days 0 0  
Month to date heating degree days 0 0  
Since 1 June heating degree days 0 13  
Since 1 July heating degree days 0 0  
Cooling Degree Days 15 10  
Month to date cooling degree days 358 357  
Year to date cooling degree days 1263 1147  
Since 1 June cooling degree days 1163 1058  
Growing Degree Days 30 (Base 50)    
Moisture  
Dew Point 71 °F    
Average Humidity 77    
Maximum Humidity 90    
Minimum Humidity 63    
Precipitation  
Precipitation 0.14 in 0.09 in 1.75 in (1944)
Month to date precipitation 6.12 2.95  
Year to date precipitation 28.35 20.91  
Snow  
Snow 0.00 in 0.00 in 0.00 in ()
Month to date snowfall 0.0 0.0  
Year to date snowfall 32.3 13.7  
Since 1 July snowfall 0.0 0.0  
Snow Depth 0.00 in    
Sea Level Pressure  
Sea Level Pressure 29.91 in    
Wind  
Wind Speed 12 mph (South)    
Max Wind Speed 36 mph    
Max Gust Speed 52 mph    
Visibility 10 miles    
Events Rain , Thunderstorm    
T = Trace of Precipitation, MM = Missing Value Source: NWS Daily Summary

Daily Weather History Graph

Daily Weather History Graph

Search for Another Location

Airport or City:

Astronomy

Aug. 29, 2019 Rise Set
Actual Time 6:55 AM CDT 8:06 PM CDT
Civil Twilight 6:28 AM CDT 8:34 PM CDT
Nautical Twilight 5:54 AM CDT 9:07 PM CDT
Astronomical Twilight 5:20 AM CDT 9:41 PM CDT
Moon 5:43 AM CDT (8/29) 8:03 PM CDT (8/29)
Length of Visible Light 14h 06m
Length of Day
13h 10m
Waning Crescent, 1% of the Moon is Illuminated
Aug 29
Waning Crescent
Aug 30
New
Sep 5
First Quarter
Sep 13
Full
Sep 21
Last Quarter

Hourly Weather History & Observations

Time (CDT) Temp. Heat Index Dew Point Humidity Pressure Visibility Wind Dir Wind Speed Gust Speed Precip Events Conditions
12:55 AM 71.1 °F - 61.0 °F 70% 29.93 in 10.0 mi South 15.0 mph - N/A   Clear
2:55 AM 70.0 °F - 62.1 °F 76% 29.93 in 10.0 mi South 13.8 mph - N/A   Clear
3:55 AM 70.0 °F - 63.0 °F 78% 29.92 in 10.0 mi South 13.8 mph - N/A   Clear
4:55 AM 70.0 °F - 64.0 °F 81% 29.91 in 10.0 mi South 11.5 mph - N/A   Clear
5:55 AM 70.0 °F - 64.9 °F 84% 29.91 in 10.0 mi South 13.8 mph - N/A   Clear
6:55 AM 70.0 °F - 66.0 °F 87% 29.91 in 10.0 mi South 13.8 mph 20.7 mph N/A   Clear
9:55 AM 79.0 °F - 71.1 °F 77% 29.93 in 10.0 mi SW 15.0 mph 23.0 mph N/A   Clear
10:55 AM 82.9 °F 88.0 °F 72.0 °F 69% 29.92 in 10.0 mi SSW 13.8 mph - N/A   Clear
11:55 AM 84.9 °F 91.4 °F 73.0 °F 67% 29.91 in 10.0 mi SSW 9.2 mph - N/A   Clear
12:55 PM 88.0 °F 96.5 °F 73.9 °F 63% 29.90 in 10.0 mi SSW 11.5 mph - N/A   Clear
1:55 PM 89.1 °F 99.1 °F 75.0 °F 63% 29.89 in 10.0 mi South 12.7 mph - N/A   Clear
2:55 PM 90.0 °F 101.3 °F 75.9 °F 63% 29.88 in 10.0 mi South 9.2 mph - N/A   Scattered Clouds
3:55 PM 90.0 °F 101.3 °F 75.9 °F 63% 29.87 in 10.0 mi South 5.8 mph - N/A   Partly Cloudy
4:55 PM 89.1 °F 100.2 °F 75.9 °F 65% 29.86 in 10.0 mi SSE 6.9 mph - N/A   Partly Cloudy
5:55 PM 88.0 °F 100.2 °F 77.0 °F 70% 29.86 in 10.0 mi SSE 10.4 mph - N/A   Partly Cloudy
6:55 PM 86.0 °F 96.0 °F 75.9 °F 72% 29.87 in 10.0 mi SSE 6.9 mph - N/A   Clear
7:55 PM 82.9 °F 90.8 °F 75.9 °F 79% 29.88 in 10.0 mi SE 3.5 mph - N/A   Overcast
8:55 PM 81.0 °F 87.3 °F 75.9 °F 85% 29.87 in 10.0 mi SE 5.8 mph - N/A   Mostly Cloudy
9:41 PM 80.1 °F 85.4 °F 75.9 °F 87% 29.95 in 10.0 mi South 6.9 mph - N/A Thunderstorm Overcast
9:55 PM 82.0 °F 88.6 °F 75.0 °F 79% 29.93 in 10.0 mi SSW 8.1 mph - N/A   Scattered Clouds
10:02 PM 81.0 °F 86.2 °F 73.9 °F 79% 30.01 in 10.0 mi West 29.9 mph 44.9 mph N/A Thunderstorm Squalls
10:14 PM 72.0 °F - 64.9 °F 78% 30.00 in 10.0 mi WNW 29.9 mph 51.8 mph 0.00 in Rain , Thunderstorm Light Rain
10:26 PM 70.0 °F - 66.0 °F 87% 29.99 in 5.0 mi NW 19.6 mph 47.2 mph 0.02 in Rain , Thunderstorm Heavy Thunderstorms and Rain
10:55 PM 70.0 °F - 66.0 °F 87% 29.94 in 10.0 mi North 17.3 mph 24.2 mph 0.11 in Rain , Thunderstorm Light Thunderstorms and Rain